TimeCST,TemperatureF,Dew PointF,Humidity,Sea Level PressureIn,VisibilityMPH,Wind Direction,Wind SpeedMPH,Gust SpeedMPH,PrecipitationIn,Events,Conditions,WindDirDegrees,DateUTC
12:15 AM,39.2,33.8,81,30.14,10.0,Calm,Calm,-,N/A,,Clear,0,2013-12-01 06:15:00
12:35 AM,37.4,33.8,87,30.14,10.0,Calm,Calm,-,N/A,,Clear,0,2013-12-01 06:35:00
12:55 AM,37.4,33.8,87,30.13,10.0,Calm,Calm,-,N/A,,Clear,0,2013-12-01 06:55:00
1:15 AM,37.4,33.8,87,30.13,9.0,Calm,Calm,-,N/A,,Clear,0,2013-12-01 07:15:00
1:35 AM,35.6,33.8,93,30.13,7.0,Calm,Calm,-,N/A,,Clear,0,2013-12-01 07:35:00
1:55 AM,35.6,33.8,93,30.13,7.0,Calm,Calm,-,N/A,,Clear,0,2013-12-01 07:55:00
2:15 AM,35.6,30.2,81,30.13,6.0,Calm,Calm,-,N/A,,Clear,0,2013-12-01 08:15:00
2:35 AM,35.6,33.8,93,30.13,8.0,Calm,Calm,-,N/A,,Clear,0,2013-12-01 08:35:00
2:55 AM,35.6,33.8,93,30.13,5.0,Calm,Calm,-,N/A,,Clear,0,2013-12-01 08:55:00
3:15 AM,33.8,30.2,87,30.13,6.0,Calm,Calm,-,N/A,,Clear,0,2013-12-01 09:15:00
3:35 AM,35.6,32.0,87,30.12,7.0,SE,3.5,-,N/A,,Clear,140,2013-12-01 09:35:00
3:55 AM,33.8,30.2,87,30.11,4.0,Calm,Calm,-,N/A,,Clear,0,2013-12-01 09:55:00
4:15 AM,33.8,30.2,87,30.11,4.0,Calm,Calm,-,N/A,,Clear,0,2013-12-01 10:15:00
4:35 AM,33.8,28.4,81,30.11,5.0,Calm,Calm,-,N/A,,Clear,0,2013-12-01 10:35:00
4:55 AM,33.8,30.2,87,30.11,4.0,Calm,Calm,-,N/A,,Clear,0,2013-12-01 10:55:00
5:15 AM,33.8,30.2,87,30.12,5.0,Calm,Calm,-,N/A,,Clear,0,2013-12-01 11:15:00
5:35 AM,33.8,28.4,81,30.12,3.0,Calm,Calm,-,N/A,,Clear,0,2013-12-01 11:35:00
5:55 AM,33.8,30.2,87,30.11,2.0,ENE,3.5,-,N/A,,Clear,70,2013-12-01 11:55:00
6:15 AM,33.8,32.0,93,30.11,1.0,Calm,Calm,-,N/A,,Clear,0,2013-12-01 12:15:00
6:35 AM,30.2,28.4,93,30.12,5.0,Calm,Calm,-,N/A,,Clear,0,2013-12-01 12:35:00
6:55 AM,32.0,28.4,87,30.12,4.0,Calm,Calm,-,N/A,,Clear,0,2013-12-01 12:55:00
7:15 AM,32.0,28.4,87,30.12,1.5,Calm,Calm,-,N/A,,Clear,0,2013-12-01 13:15:00
7:35 AM,30.2,28.4,93,30.13,2.5,Calm,Calm,-,N/A,,Clear,0,2013-12-01 13:35:00
7:55 AM,33.8,30.2,87,30.13,1.5,Calm,Calm,-,N/A,,Clear,0,2013-12-01 13:55:00
8:15 AM,33.8,30.2,87,30.13,3.0,Calm,Calm,-,N/A,,Clear,0,2013-12-01 14:15:00
8:35 AM,35.6,33.8,93,30.13,3.0,Calm,Calm,-,N/A,,Mostly Cloudy,0,2013-12-01 14:35:00
8:55 AM,37.4,35.6,93,30.13,2.0,Calm,Calm,-,N/A,,Overcast,0,2013-12-01 14:55:00
9:15 AM,39.2,37.4,93,30.14,0.2,Calm,Calm,-,N/A,,Overcast,0,2013-12-01 15:15:00
9:35 AM,39.2,37.4,93,30.14,2.0,Calm,Calm,-,N/A,,Scattered Clouds,0,2013-12-01 15:35:00
9:55 AM,42.8,37.4,81,30.13,8.0,Calm,Calm,-,N/A,,Clear,0,2013-12-01 15:55:00
10:15 AM,44.6,39.2,81,30.13,8.0,Calm,Calm,-,N/A,,Clear,0,2013-12-01 16:15:00
10:35 AM,46.4,41.0,81,30.12,10.0,Calm,Calm,-,N/A,,Clear,0,2013-12-01 16:35:00
10:55 AM,48.2,41.0,76,30.11,10.0,Calm,Calm,-,N/A,,Clear,0,2013-12-01 16:55:00
11:15 AM,51.8,41.0,67,30.10,10.0,SE,3.5,-,N/A,,Clear,130,2013-12-01 17:15:00
11:35 AM,51.8,42.8,71,30.09,10.0,Calm,Calm,-,N/A,,Clear,0,2013-12-01 17:35:00
11:55 AM,53.6,42.8,67,30.08,10.0,SE,3.5,-,N/A,,Clear,130,2013-12-01 17:55:00
12:15 PM,55.4,42.8,63,30.06,10.0,Calm,Calm,-,N/A,,Clear,0,2013-12-01 18:15:00
12:35 PM,55.4,42.8,63,30.05,10.0,Calm,Calm,-,N/A,,Clear,0,2013-12-01 18:35:00
12:55 PM,55.4,41.0,58,30.04,10.0,Calm,Calm,-,N/A,,Clear,0,2013-12-01 18:55:00
1:15 PM,55.4,41.0,58,30.03,10.0,Calm,Calm,-,N/A,,Clear,0,2013-12-01 19:15:00
1:35 PM,57.2,41.0,55,30.02,10.0,Calm,Calm,-,N/A,,Clear,0,2013-12-01 19:35:00
1:55 PM,57.2,41.0,55,30.01,10.0,SSW,3.5,-,N/A,,Clear,200,2013-12-01 19:55:00
2:15 PM,57.2,39.2,51,30.00,10.0,Calm,Calm,-,N/A,,Clear,0,2013-12-01 20:15:00
2:35 PM,59.0,39.2,48,29.99,10.0,Calm,Calm,-,N/A,,Clear,0,2013-12-01 20:35:00
2:55 PM,59.0,39.2,48,29.99,10.0,East,4.6,-,N/A,,Clear,80,2013-12-01 20:55:00
3:15 PM,59.0,39.2,48,29.98,10.0,ENE,3.5,-,N/A,,Clear,70,2013-12-01 21:15:00
3:35 PM,59.0,39.2,48,29.98,10.0,Calm,Calm,-,N/A,,Clear,0,2013-12-01 21:35:00
3:55 PM,57.2,39.2,51,29.97,10.0,NNE,3.5,-,N/A,,Clear,30,2013-12-01 21:55:00
4:15 PM,55.4,41.0,58,29.97,10.0,North,4.6,-,N/A,,Clear,350,2013-12-01 22:15:00
4:35 PM,55.4,39.2,54,29.97,10.0,North,4.6,-,N/A,,Clear,360,2013-12-01 22:35:00
4:55 PM,53.6,39.2,58,29.98,10.0,North,3.5,-,N/A,,Clear,360,2013-12-01 22:55:00
5:15 PM,51.8,39.2,62,29.98,10.0,North,3.5,-,N/A,,Clear,350,2013-12-01 23:15:00
5:35 PM,50.0,39.2,66,29.97,10.0,North,3.5,-,N/A,,Clear,360,2013-12-01 23:35:00
5:55 PM,50.0,39.2,66,29.97,10.0,Calm,Calm,-,N/A,,Clear,0,2013-12-01 23:55:00
6:15 PM,48.2,39.2,71,29.96,10.0,Calm,Calm,-,N/A,,Partly Cloudy,0,2013-12-02 00:15:00
6:35 PM,48.2,39.2,71,29.96,10.0,Calm,Calm,-,N/A,,Partly Cloudy,0,2013-12-02 00:35:00
6:55 PM,44.6,37.4,76,29.96,10.0,Calm,Calm,-,N/A,,Clear,0,2013-12-02 00:55:00
7:15 PM,44.6,37.4,76,29.96,10.0,Calm,Calm,-,N/A,,Clear,0,2013-12-02 01:15:00
7:35 PM,42.8,37.4,81,29.96,10.0,Calm,Calm,-,N/A,,Clear,0,2013-12-02 01:35:00
7:55 PM,42.8,37.4,81,29.95,10.0,Calm,Calm,-,N/A,,Clear,0,2013-12-02 01:55:00
8:15 PM,42.8,37.4,81,29.95,10.0,Calm,Calm,-,N/A,,Partly Cloudy,0,2013-12-02 02:15:00
8:35 PM,41.0,35.6,81,29.96,10.0,Calm,Calm,-,N/A,,Mostly Cloudy,0,2013-12-02 02:35:00
8:55 PM,42.8,37.4,81,29.95,10.0,Calm,Calm,-,N/A,,Overcast,0,2013-12-02 02:55:00
9:15 PM,41.0,37.4,87,29.95,10.0,Calm,Calm,-,N/A,,Scattered Clouds,0,2013-12-02 03:15:00
9:35 PM,39.2,35.6,87,29.93,10.0,Calm,Calm,-,N/A,,Clear,0,2013-12-02 03:35:00
9:55 PM,39.2,35.6,87,29.93,10.0,SSE,3.5,-,N/A,,Clear,160,2013-12-02 03:55:00
10:15 PM,37.4,33.8,87,29.91,10.0,Calm,Calm,-,N/A,,Clear,0,2013-12-02 04:15:00
10:35 PM,37.4,33.8,87,29.91,10.0,Calm,Calm,-,N/A,,Clear,0,2013-12-02 04:35:00
10:55 PM,35.6,30.2,81,29.92,8.0,Calm,Calm,-,N/A,,Clear,0,2013-12-02 04:55:00
11:15 PM,37.4,35.6,93,29.90,10.0,Calm,Calm,-,N/A,,Partly Cloudy,0,2013-12-02 05:15:00
11:35 PM,37.4,33.8,87,29.90,8.0,Calm,Calm,-,N/A,,Partly Cloudy,0,2013-12-02 05:35:00
11:55 PM,37.4,33.8,87,29.90,8.0,Calm,Calm,-,N/A,,Mostly Cloudy,0,2013-12-02 05:55:00